Showing default

EUTE 115 WEST B(SATMEX 7, 40425

Orbit data source: Space-Track

EUTE 115 WEST B(SATMEX 7, 40425 is a payload satellite owned by Eutelsat Americas (FR) in GEO that was launched on Mon, 02 Mar 2015 UTC via an FALCON 9 launch vehicle from the Air Force Eastern Test Range (AFETR). Payload-class satellites include a variety of spacecraft equipped with specific instruments for various scientific and technological missions. These include communications satellites like Starlink; space stations such as the ISS; scientific satellites like the Hubble; Earth observation satellites from companies like Planet Labs, Umbra, and HawkEye 360; GPS; miniature CubeSats for education and research; and military/defense satellites.

Loading next visibility...
Identifier
40425, 2015-010B
Orbit
GEO
Country
Flag of UnknownUnknown / EUTE
Related business
Manufacturer
Airbus/Toulouse
Mission
Operational Commercial Communications
Bus & Motor
BSS-702SP, XIPS-25
Mass
2,205 kg wet, ~1,500 kg dry
Launch date (UTC)
2015-03-02 (11 years ago)
Launch vehicle
FALCON 9
Launch site
Air Force Eastern Test Range (AFETR)
Object type
Payload
Rocket body
Debris
Shape & HBR
Box + 2 Pan, 20.0 m
Radar Cross Section
33.227 m², Large (>1 m²)

Expand to show TLE details & history
Last TLE update: 11 hours ago

TLE from 11 hours ago
0 EUTE 115 WEST B(SATMEX 7
1 40425U 15010B   25343.41896340 -.00000022  00000-0  00000-0 0  9999
2 40425   0.0086 153.7590 0000283 289.3308  31.2487  1.00267856 39492
Epoch: 2025-12-09T10:03Z
TLE epoch observation values (Epoch: 2025-12-09T10:03:18.437Z)
Latitude
-0.00856°
Longitude
-114.89413°
Altitude
35,786.164 km
Speed
3.075 km/s
True Right ascension
07h 37m 20s
True Declination
0° 00' 31"
Sunlit
Object was in daylight at epoch
Visualization orbit readout
Latitude
Unknown
Longitude
Unknown
Altitude
Unknown
Speed
Unknown
Apparent Right ascension
Unknown
Apparent Declination
Unknown
Sunlit
N/A
Visualization observer readout
Local Sidereal Time
18:58:04
Azimuth
Unknown
Elevation
Unknown
Doppler factor
Unknown
Orbital elements
Apogee altitude
35,789.96 km
Perigee altitude
35,787.573 km
Semi-major axis
42,166.904 km
Eccentricity
0.00003
Inclination
0.0086°
RAAN
153.759°
Arg. of periapsis
289.3308°
True anomaly
31.25038°
Mean anomaly
31.2487°
Eccentric anomaly
31.24954°
Mean motion
0.25066 °/min
Orbital period
1,436.21 mins
BSTAR
0
Loading maneuver chart data...
Computing Atmospheric mass density...
Loading historical data...
Loading historical data...
Loading historical data...
Loading historical data...
Loading historical data...
Loading historical data...
Loading historical data...
Other satellites on launch #10 in the year 2015 (2015-03-02 UTC)

Documentation

Showing up to 5 results
|